Time,TemperatureF,DewpointF,PressureIn,WindDirection,WindDirectionDegrees,WindSpeedMPH,WindSpeedGustMPH,Humidity,HourlyPrecipIn,Conditions,Clouds,dailyrainin,SoftwareType,DateUTC
2013-02-12 00:00:00,40.0,34.3,27.53,SSW,203,0.4,0.4,80,0.00,,,0.21,WUHU216HW,2013-02-12 07:00:00,
2013-02-12 00:05:00,40.0,34.3,27.53,WSW,248,0.0,0.4,80,0.00,,,0.00,WUHU216HW,2013-02-12 07:05:00,
2013-02-12 00:30:00,40.1,34.1,27.53,WSW,248,0.0,0.0,79,0.00,,,0.00,WUHU216HW,2013-02-12 07:30:00,
2013-02-12 00:35:00,40.1,34.5,27.53,WSW,248,0.0,0.0,80,0.00,,,0.00,WUHU216HW,2013-02-12 07:35:00,
2013-02-12 01:00:00,40.1,34.5,27.53,SSW,203,0.0,0.0,80,0.00,,,0.00,WUHU216HW,2013-02-12 08:00:00,
2013-02-12 01:05:00,40.1,34.5,27.53,SSW,203,0.0,0.0,80,0.00,,,0.00,WUHU216HW,2013-02-12 08:05:00,
2013-02-12 01:30:00,40.1,34.5,27.53,SE,135,0.0,0.0,80,0.00,,,0.00,WUHU216HW,2013-02-12 08:30:00,
2013-02-12 01:35:00,40.1,34.5,27.53,SE,135,0.0,0.0,80,0.00,,,0.00,WUHU216HW,2013-02-12 08:35:00,
2013-02-12 02:00:00,40.3,34.3,27.54,SSW,203,0.4,0.4,79,0.00,,,0.00,WUHU216HW,2013-02-12 09:00:00,
2013-02-12 02:05:00,40.3,34.3,27.54,SW,225,0.0,0.4,79,0.00,,,0.00,WUHU216HW,2013-02-12 09:05:00,
2013-02-12 02:10:00,40.3,34.3,27.54,SW,225,0.0,0.0,79,0.00,,,0.00,WUHU216HW,2013-02-12 09:10:00,
2013-02-12 02:30:00,40.3,34.3,27.54,NW,315,0.0,0.0,79,0.00,,,0.00,WUHU216HW,2013-02-12 09:30:00,
2013-02-12 02:35:00,40.1,34.1,27.54,NW,315,0.0,0.0,79,0.00,,,0.00,WUHU216HW,2013-02-12 09:35:00,
2013-02-12 03:00:00,40.3,34.3,27.53,SE,135,0.0,0.0,79,0.00,,,0.00,WUHU216HW,2013-02-12 10:00:00,
2013-02-12 03:05:00,40.3,34.3,27.53,SE,135,0.0,0.0,79,0.00,,,0.00,WUHU216HW,2013-02-12 10:05:00,
2013-02-12 03:10:00,40.3,34.3,27.53,SE,135,0.0,0.0,79,0.00,,,0.00,WUHU216HW,2013-02-12 10:10:00,
2013-02-12 03:30:00,40.1,34.1,27.54,NW,315,0.0,0.0,79,0.00,,,0.00,WUHU216HW,2013-02-12 10:30:00,
2013-02-12 03:35:00,40.1,34.1,27.54,NW,315,0.0,0.0,79,0.00,,,0.00,WUHU216HW,2013-02-12 10:35:00,
2013-02-12 03:40:00,40.1,34.1,27.54,NW,315,0.0,0.0,79,0.00,,,0.00,WUHU216HW,2013-02-12 10:40:00,
2013-02-12 04:00:00,39.6,33.7,27.53,NW,315,0.0,0.0,79,0.00,,,0.00,WUHU216HW,2013-02-12 11:00:00,
2013-02-12 04:05:00,39.6,33.7,27.53,NW,315,0.0,0.0,79,0.00,,,0.00,WUHU216HW,2013-02-12 11:05:00,
2013-02-12 04:30:00,39.1,33.1,27.53,NW,315,0.0,0.0,79,0.00,,,0.00,WUHU216HW,2013-02-12 11:30:00,
2013-02-12 04:35:00,39.1,33.1,27.53,NW,315,0.0,0.0,79,0.00,,,0.00,WUHU216HW,2013-02-12 11:35:00,
2013-02-12 05:00:00,37.8,31.2,27.53,NW,315,0.0,0.0,77,0.00,,,0.00,WUHU216HW,2013-02-12 12:00:00,
2013-02-12 05:05:00,37.8,31.2,27.53,NW,315,0.0,0.0,77,0.00,,,0.00,WUHU216HW,2013-02-12 12:05:00,
2013-02-12 05:10:00,37.8,31.2,27.53,NW,315,0.0,0.0,77,0.00,,,0.00,WUHU216HW,2013-02-12 12:10:00,
2013-02-12 05:30:00,36.5,30.3,27.54,NNE,23,0.0,0.0,78,0.00,,,0.00,WUHU216HW,2013-02-12 12:30:00,
2013-02-12 05:35:00,36.5,30.3,27.54,NNE,23,0.0,0.0,78,0.00,,,0.00,WUHU216HW,2013-02-12 12:35:00,
2013-02-12 06:00:00,35.8,29.6,27.55,SE,135,0.0,0.0,78,0.00,,,0.00,WUHU216HW,2013-02-12 13:00:00,
2013-02-12 06:05:00,35.8,29.6,27.55,SE,135,0.0,0.0,78,0.00,,,0.00,WUHU216HW,2013-02-12 13:05:00,
2013-02-12 06:30:00,35.3,29.3,27.55,NNE,23,0.0,0.0,79,0.00,,,0.00,WUHU216HW,2013-02-12 13:30:00,
2013-02-12 06:35:00,35.3,29.3,27.55,NNE,23,0.0,0.0,79,0.00,,,0.00,WUHU216HW,2013-02-12 13:35:00,
2013-02-12 06:40:00,35.3,29.3,27.55,NNE,23,0.0,0.0,79,0.00,,,0.00,WUHU216HW,2013-02-12 13:40:00,
2013-02-12 07:00:00,34.9,28.7,27.56,NNE,23,0.0,0.0,78,0.00,,,0.00,WUHU216HW,2013-02-12 14:00:00,
2013-02-12 07:05:00,34.9,28.7,27.56,NNE,23,0.0,0.0,78,0.00,,,0.00,WUHU216HW,2013-02-12 14:05:00,
2013-02-12 07:30:00,34.6,28.4,27.58,NNE,23,0.0,0.0,78,0.00,,,0.00,WUHU216HW,2013-02-12 14:30:00,
2013-02-12 07:35:00,34.6,28.4,27.58,NNE,23,0.0,0.0,78,0.00,,,0.00,WUHU216HW,2013-02-12 14:35:00,
2013-02-12 07:40:00,34.6,28.4,27.58,NNE,23,0.0,0.0,78,0.00,,,0.00,WUHU216HW,2013-02-12 14:40:00,
2013-02-12 08:00:00,34.9,29.3,27.59,NNE,23,0.4,0.4,80,0.00,,,0.00,WUHU216HW,2013-02-12 15:00:00,
2013-02-12 08:05:00,34.9,29.3,27.59,NNE,23,0.4,0.4,80,0.00,,,0.00,WUHU216HW,2013-02-12 15:05:00,
2013-02-12 08:10:00,34.9,29.3,27.59,NNE,23,0.4,0.4,80,0.00,,,0.00,WUHU216HW,2013-02-12 15:10:00,
2013-02-12 08:30:00,36.2,30.9,27.60,NNE,23,0.0,0.0,81,0.00,,,0.00,WUHU216HW,2013-02-12 15:30:00,
2013-02-12 08:35:00,36.2,30.9,27.60,NNE,23,0.0,0.0,81,0.00,,,0.00,WUHU216HW,2013-02-12 15:35:00,
2013-02-12 09:00:00,37.1,31.8,27.61,WSW,248,0.7,0.7,81,0.00,,,0.00,WUHU216HW,2013-02-12 16:00:00,
2013-02-12 09:05:00,37.1,31.8,27.61,WSW,248,0.7,0.7,81,0.00,,,0.00,WUHU216HW,2013-02-12 16:05:00,
2013-02-12 09:30:00,39.1,33.5,27.61,SW,225,0.7,0.7,80,0.00,,,0.00,WUHU216HW,2013-02-12 16:30:00,
2013-02-12 09:35:00,39.1,33.5,27.61,SW,225,0.7,0.7,80,0.00,,,0.00,WUHU216HW,2013-02-12 16:35:00,
2013-02-12 09:40:00,39.1,33.5,27.61,SW,225,0.7,0.7,80,0.00,,,0.00,WUHU216HW,2013-02-12 16:40:00,
2013-02-12 10:00:00,40.7,34.3,27.62,SW,225,1.1,1.1,78,0.00,,,0.00,WUHU216HW,2013-02-12 17:00:00,
2013-02-12 10:05:00,40.9,34.5,27.62,West,270,0.7,1.1,78,0.00,,,0.00,WUHU216HW,2013-02-12 17:05:00,
2013-02-12 10:10:00,40.9,34.5,27.62,West,270,0.7,0.7,78,0.00,,,0.00,WUHU216HW,2013-02-12 17:10:00,
2013-02-12 10:30:00,41.8,34.0,27.63,SSW,203,0.2,0.2,74,0.00,,,0.00,WUHU216HW,2013-02-12 17:30:00,
2013-02-12 10:35:00,41.8,34.0,27.63,NW,315,0.0,0.2,74,0.00,,,0.00,WUHU216HW,2013-02-12 17:35:00,
2013-02-12 11:00:00,42.5,33.9,27.63,ENE,68,0.0,0.0,71,0.00,,,0.00,WUHU216HW,2013-02-12 18:00:00,
2013-02-12 11:05:00,42.5,33.9,27.63,North,0,0.0,0.0,71,0.00,,,0.00,WUHU216HW,2013-02-12 18:05:00,
2013-02-12 11:10:00,42.5,33.9,27.63,North,0,0.0,0.0,71,0.00,,,0.00,WUHU216HW,2013-02-12 18:10:00,
2013-02-12 11:30:00,44.1,35.0,27.62,SSW,203,1.6,1.6,70,0.00,,,0.00,WUHU216HW,2013-02-12 18:30:00,
2013-02-12 11:35:00,44.1,35.0,27.62,SW,225,2.9,2.9,70,0.00,,,0.00,WUHU216HW,2013-02-12 18:35:00,
2013-02-12 11:40:00,44.1,35.0,27.62,SW,225,2.9,2.9,70,0.00,,,0.00,WUHU216HW,2013-02-12 18:40:00,
2013-02-12 12:00:00,46.4,35.6,27.61,SSE,158,1.1,1.1,66,0.00,,,0.00,WUHU216HW,2013-02-12 19:00:00,
2013-02-12 12:05:00,46.4,35.6,27.61,SE,135,0.9,1.1,66,0.00,,,0.00,WUHU216HW,2013-02-12 19:05:00,
2013-02-12 12:30:00,46.3,32.7,27.60,West,270,3.4,3.4,59,0.00,,,0.00,WUHU216HW,2013-02-12 19:30:00,
2013-02-12 12:35:00,46.1,32.5,27.60,West,270,3.4,3.4,59,0.00,,,0.00,WUHU216HW,2013-02-12 19:35:00,
2013-02-12 13:00:00,47.7,33.7,27.58,South,180,2.7,2.7,58,0.00,,,0.00,WUHU216HW,2013-02-12 20:00:00,
2013-02-12 13:05:00,47.7,33.7,27.58,WSW,248,3.4,3.4,58,0.00,,,0.00,WUHU216HW,2013-02-12 20:05:00,
2013-02-12 13:10:00,47.7,33.7,27.58,WSW,248,3.4,3.4,58,0.00,,,0.00,WUHU216HW,2013-02-12 20:10:00,
2013-02-12 13:30:00,49.3,33.8,27.57,ESE,113,1.8,1.8,55,0.00,,,0.00,WUHU216HW,2013-02-12 20:30:00,
2013-02-12 13:35:00,49.3,33.8,27.57,East,90,1.8,1.8,55,0.00,,,0.00,WUHU216HW,2013-02-12 20:35:00,
2013-02-12 14:00:00,50.4,33.9,27.56,SSE,158,0.9,0.9,53,0.00,,,0.00,WUHU216HW,2013-02-12 21:00:00,
2013-02-12 14:05:00,50.4,33.9,27.56,SE,135,2.0,2.0,53,0.00,,,0.00,WUHU216HW,2013-02-12 21:05:00,
2013-02-12 14:30:00,52.0,33.5,27.55,North,0,1.1,1.1,49,0.00,,,0.00,WUHU216HW,2013-02-12 21:30:00,
2013-02-12 14:35:00,52.0,33.5,27.55,SSW,203,1.1,1.1,49,0.00,,,0.00,WUHU216HW,2013-02-12 21:35:00,
2013-02-12 15:00:00,52.9,33.1,27.54,SE,135,0.2,0.2,47,0.00,,,0.00,WUHU216HW,2013-02-12 22:00:00,
2013-02-12 15:05:00,52.9,33.1,27.54,SW,225,1.6,1.6,47,0.00,,,0.00,WUHU216HW,2013-02-12 22:05:00,
2013-02-12 15:30:00,53.1,32.8,27.53,North,0,1.8,1.8,46,0.00,,,0.00,WUHU216HW,2013-02-12 22:30:00,
2013-02-12 15:35:00,53.1,32.8,27.53,North,0,0.9,1.8,46,0.00,,,0.00,WUHU216HW,2013-02-12 22:35:00,
2013-02-12 16:00:00,52.4,31.0,27.53,West,270,2.5,2.5,44,0.00,,,0.00,WUHU216HW,2013-02-12 23:00:00,
2013-02-12 16:05:00,52.2,30.8,27.53,WNW,293,2.2,2.5,44,0.00,,,0.00,WUHU216HW,2013-02-12 23:05:00,
2013-02-12 16:10:00,52.2,30.8,27.53,WNW,293,2.2,2.5,44,0.00,,,0.00,WUHU216HW,2013-02-12 23:10:00,
2013-02-12 16:30:00,53.1,33.3,27.53,WSW,248,3.6,3.6,47,0.00,,,0.00,WUHU216HW,2013-02-12 23:30:00,
2013-02-12 16:35:00,53.1,33.3,27.53,SE,135,2.7,3.6,47,0.00,,,0.00,WUHU216HW,2013-02-12 23:35:00,
2013-02-12 17:00:00,52.9,32.6,27.52,SW,225,2.7,2.7,46,0.00,,,0.00,WUHU216HW,2013-02-13 00:00:00,
2013-02-12 17:05:00,52.7,32.4,27.52,WNW,293,1.8,2.7,46,0.00,,,0.00,WUHU216HW,2013-02-13 00:05:00,
2013-02-12 17:30:00,52.4,32.7,27.53,WSW,248,3.1,3.1,47,0.00,,,0.00,WUHU216HW,2013-02-13 00:30:00,
2013-02-12 17:35:00,52.4,32.7,27.53,SW,225,1.8,3.1,47,0.00,,,0.00,WUHU216HW,2013-02-13 00:35:00,
2013-02-12 18:00:00,51.5,32.4,27.53,West,270,2.7,2.7,48,0.00,,,0.00,WUHU216HW,2013-02-13 01:00:00,
2013-02-12 18:05:00,51.5,32.4,27.53,SW,225,2.9,2.9,48,0.00,,,0.00,WUHU216HW,2013-02-13 01:05:00,
2013-02-12 18:10:00,51.5,32.4,27.53,SW,225,2.9,2.9,48,0.00,,,0.00,WUHU216HW,2013-02-13 01:10:00,
2013-02-12 18:30:00,49.0,30.1,27.54,WSW,248,2.5,2.5,48,0.00,,,0.00,WUHU216HW,2013-02-13 01:30:00,
2013-02-12 18:35:00,49.0,30.1,27.54,WSW,248,2.5,2.5,48,0.00,,,0.00,WUHU216HW,2013-02-13 01:35:00,
2013-02-12 19:00:00,47.9,29.5,27.54,NNW,338,0.4,0.4,49,0.00,,,0.00,WUHU216HW,2013-02-13 02:00:00,
2013-02-12 19:05:00,48.1,29.7,27.54,West,270,1.1,1.1,49,0.00,,,0.00,WUHU216HW,2013-02-13 02:05:00,
2013-02-12 19:30:00,47.3,29.6,27.54,SE,135,0.0,0.0,50,0.00,,,0.00,WUHU216HW,2013-02-13 02:30:00,
2013-02-12 19:35:00,47.3,29.6,27.54,SE,135,0.0,0.0,50,0.00,,,0.00,WUHU216HW,2013-02-13 02:35:00,
2013-02-12 20:00:00,45.4,30.1,27.55,East,90,0.0,0.0,55,0.00,,,0.00,WUHU216HW,2013-02-13 03:00:00,
2013-02-12 20:05:00,45.4,30.1,27.55,East,90,0.0,0.0,55,0.00,,,0.00,WUHU216HW,2013-02-13 03:05:00,
2013-02-12 20:30:00,44.5,30.2,27.55,ENE,68,0.0,0.0,57,0.00,,,0.00,WUHU216HW,2013-02-13 03:30:00,
2013-02-12 20:35:00,44.5,30.2,27.55,NE,45,0.0,0.0,57,0.00,,,0.00,WUHU216HW,2013-02-13 03:35:00,
2013-02-12 21:00:00,43.9,30.1,27.55,ESE,113,0.0,0.0,58,0.00,,,0.00,WUHU216HW,2013-02-13 04:00:00,
2013-02-12 21:05:00,43.9,30.1,27.55,ESE,113,0.0,0.0,58,0.00,,,0.00,WUHU216HW,2013-02-13 04:05:00,
2013-02-12 21:30:00,43.6,30.2,27.56,WNW,293,0.0,0.0,59,0.00,,,0.00,WUHU216HW,2013-02-13 04:30:00,
2013-02-12 21:35:00,43.6,30.2,27.56,WNW,293,0.0,0.0,59,0.00,,,0.00,WUHU216HW,2013-02-13 04:35:00,
2013-02-12 22:00:00,42.7,30.2,27.56,North,0,0.0,0.0,61,0.00,,,0.00,WUHU216HW,2013-02-13 05:00:00,
2013-02-12 22:05:00,42.7,30.2,27.56,North,0,0.0,0.0,61,0.00,,,0.00,WUHU216HW,2013-02-13 05:05:00,
2013-02-12 22:30:00,41.2,29.5,27.56,ENE,68,0.0,0.0,63,0.00,,,0.00,WUHU216HW,2013-02-13 05:30:00,
2013-02-12 22:35:00,41.2,29.5,27.56,ENE,68,0.0,0.0,63,0.00,,,0.00,WUHU216HW,2013-02-13 05:35:00,
2013-02-12 23:00:00,40.0,29.4,27.55,NE,45,0.0,0.0,66,0.00,,,0.00,WUHU216HW,2013-02-13 06:00:00,
2013-02-12 23:05:00,40.0,29.4,27.55,NE,45,0.0,0.0,66,0.00,,,0.00,WUHU216HW,2013-02-13 06:05:00,
2013-02-12 23:10:00,40.0,29.4,27.55,NE,45,0.0,0.0,66,0.00,,,0.00,WUHU216HW,2013-02-13 06:10:00,
2013-02-12 23:30:00,39.1,29.0,27.55,NE,45,0.0,0.0,67,0.00,,,0.00,WUHU216HW,2013-02-13 06:30:00,
2013-02-12 23:35:00,39.1,29.0,27.55,NE,45,0.0,0.0,67,0.00,,,0.00,WUHU216HW,2013-02-13 06:35:00,